Weather History for Greenville/Spartanburg, SC

Change the Weather History Date:

Wednesday, January 22, 2014

  Actual Average Record
Temperature  
Mean Temperature 29 °F 42 °F  
Max Temperature 38 °F 53 °F 72 °F (1938)
Min Temperature 19 °F 32 °F 3 °F (1893)
Degree Days  
Heating Degree Days 36 23  
Month to date heating degree days 594 506  
Since 1 July heating degree days 1757 1709  
Cooling Degree Days 0 0  
Month to date cooling degree days 0 0  
Year to date cooling degree days 0 0  
Moisture  
Dew Point 1 °F    
Average Humidity 36    
Maximum Humidity 57    
Minimum Humidity 14    
Precipitation  
Precipitation 0.00 in 0.13 in 1.51 in (1954)
Month to date precipitation 3.09 2.73  
Year to date precipitation 3.09 2.73  
Snow  
Snow 0.00 in 0.10 in 10.20 in (1987)
Month to date snowfall 0.0 1.7  
Since 1 July snowfall 0.1 2.2  
Snow Depth 0.00 in    
Sea Level Pressure  
Sea Level Pressure 29.99 in    
Wind  
Wind Speed 8 mph (West)    
Max Wind Speed 14 mph    
Max Gust Speed 22 mph    
Visibility 10 miles    
Events      
T = Trace of Precipitation, MM = Missing Value Source: NWS Daily Summary

Daily Weather History Graph

Daily Weather History Graph

Search for Another Location

Airport:

Trip Planner

Search our weather history database for the weather conditions in past years. The results will help you decide how hot, cold, wet, or windy it might be!

Date:

Astronomy

Jan. 22, 2014 Rise Set
Actual Time 7:33 AM EST 5:47 PM EST
Civil Twilight 7:06 AM EST 6:14 PM EST
Nautical Twilight 6:35 AM EST 6:45 PM EST
Astronomical Twilight 6:05 AM EST 7:15 PM EST
Moon No Moon Rise 10:50 AM EST (1/22)
Length of Visible Light 11h 08m
Length of Day
10h 14m
Waning Gibbous, 65% of the Moon is Illuminated
Jan 22
Waning Gibbous
Jan 24
Last Quarter
Jan 30
New
Feb 6
First Quarter
Feb 14
Full

Hourly Weather History & Observations

Time (EST) Temp. Windchill Dew Point Humidity Pressure Visibility Wind Dir Wind Speed Gust Speed Precip Events Conditions
12:53 AM 26.1 °F 16.8 °F 9.0 °F 49% 29.88 in 10.0 mi NNW 9.2 mph 17.3 mph N/A   Clear
1:53 AM 26.1 °F 16.2 °F 9.0 °F 49% 29.90 in 10.0 mi NW 10.4 mph 17.3 mph N/A   Clear
2:53 AM 23.0 °F 12.4 °F 9.0 °F 55% 29.91 in 10.0 mi NNW 10.4 mph - N/A   Clear
3:53 AM 21.9 °F 14.5 °F 8.1 °F 55% 29.93 in 10.0 mi NNW 5.8 mph - N/A   Clear
4:53 AM 21.9 °F 11.7 °F 8.1 °F 55% 29.93 in 10.0 mi North 9.2 mph 21.9 mph N/A   Clear
5:53 AM 21.0 °F 9.3 °F 6.1 °F 53% 29.96 in 10.0 mi NW 11.5 mph 19.6 mph N/A   Clear
6:53 AM 19.9 °F 12.1 °F 3.0 °F 48% 29.99 in 10.0 mi NNW 5.8 mph 17.3 mph N/A   Clear
7:53 AM 19.0 °F 8.2 °F -0.0 °F 43% 29.99 in 10.0 mi NW 9.2 mph - N/A   Clear
8:53 AM 23.0 °F 14.7 °F -0.9 °F 35% 30.02 in 10.0 mi North 6.9 mph - N/A   Clear
9:53 AM 26.1 °F 16.8 °F -4.0 °F 27% 30.05 in 10.0 mi North 9.2 mph - N/A   Clear
10:53 AM 28.0 °F 20.0 °F -4.0 °F 25% 30.07 in 10.0 mi WNW 8.1 mph - N/A   Clear
11:53 AM 30.0 °F 22.4 °F -9.0 °F 18% 30.04 in 10.0 mi West 8.1 mph - N/A   Clear
12:53 PM 34.0 °F 31.0 °F -11.0 °F 14% 30.00 in 10.0 mi Variable 3.5 mph - N/A   Clear
1:53 PM 36.0 °F 32.1 °F -9.0 °F 14% 29.99 in 10.0 mi SSW 4.6 mph - N/A   Clear
2:53 PM 37.0 °F 33.3 °F -0.9 °F 20% 29.97 in 10.0 mi Variable 4.6 mph - N/A   Clear
3:53 PM 37.9 °F 30.9 °F 1.0 °F 21% 29.97 in 10.0 mi SSW 10.4 mph - N/A   Clear
4:53 PM 36.0 °F 29.6 °F -2.9 °F 19% 29.98 in 10.0 mi SSW 8.1 mph - N/A   Clear
5:53 PM 34.0 °F 27.2 °F -2.9 °F 21% 29.99 in 10.0 mi SSW 8.1 mph - N/A   Clear
6:53 PM 30.9 °F 25.2 °F -2.0 °F 24% 30.02 in 10.0 mi SSW 5.8 mph - N/A   Clear
7:53 PM 30.9 °F 23.5 °F 1.0 °F 28% 30.02 in 10.0 mi SSW 8.1 mph - N/A   Clear
8:53 PM 30.0 °F 23.2 °F 1.9 °F 30% 30.04 in 10.0 mi SW 6.9 mph - N/A   Clear
9:53 PM 28.0 °F 20.0 °F 1.9 °F 33% 30.05 in 10.0 mi WSW 8.1 mph - N/A   Clear
10:53 PM 27.0 °F 23.0 °F 3.0 °F 36% 30.07 in 10.0 mi SSW 3.5 mph - N/A   Clear
11:53 PM 26.1 °F 17.6 °F -0.0 °F 32% 30.07 in 10.0 mi SW 8.1 mph - N/A   Clear